Location: Crescent
(42.8242°N, 73.7329°W)
Time: 19:07:45
(UTC+00:00)

Tiros 1 - Pass Details

Date: 22 February 2026
Orbit: 618 x 649 km, 48.4° (Epoch: 10 March)

Event Time Altitude Azimuth Distance (km) Brightness Sun altitude
Rises 14:38:33 0° 282° (WNW) 2,912 10.1 27.0°
Reaches altitude 10° 14:40:59 10° 290° (WNW) 1,999 9.3 27.3°
Maximum altitude 14:45:20 40° 1° (N) 914 7.9 27.9°
Drops below altitude 10° 14:49:39 10° 72° (ENE) 1,985 10.0 28.4°
Sets 14:52:04 0° 79° (E) 2,888 10.8 28.7°
